Location: Nairn
(57.5833°N, 3.8667°W)
Time: 01:47:17
(UTC+00:00)

Daily predictions for brighter satellites

Satellite Brightness Start Highest point End
(mag) Time Altitude Azimuth Time Altitude Azimuth Time Altitude Azimuth
GENESIS II 4.1 00:01:26 10° NW 00:05:28 74° SW 00:07:31 27° SE
Meteor 1-11 Rocket 3.8 00:02:09 21° SSW 00:06:01 77° WNW 00:11:49 10° NNE
Cosmos 2333 4.3 00:00:57 10° NW 00:06:44 67° WSW 00:10:14 24° SSE
Cosmos 2219 Rocket 2.2 00:01:35 10° NW 00:07:18 85° SW 00:11:13 21° SSE
EO 1 Del DPAF 3.7 00:04:34 10° N 00:08:16 55° WNW 00:10:23 23° SW
Cosmos 2082 Rocket 3.5 00:03:01 10° WSW 00:08:23 41° NW 00:13:45 10° NNE
Cosmos 836 Rocket 4.5 00:03:17 10° NNW 00:08:32 76° WSW 00:11:32 26° SSE
SL-27 R/B 2.9 00:07:20 23° SW 00:09:10 54° WNW 00:12:27 10° NNE
Aureole 1 4.4 00:10:08 10° NNW 00:13:23 87° WSW 00:15:04 31° SSE
Lacrosse 4 Rocket 2.7 00:13:01 23° SE 00:14:01 25° ESE 00:17:30 10° ENE
FALCON 9 DEB 4.3 00:15:49 27° SE 00:15:49 27° SE 00:17:55 10° ESE
Cosmos 2233 Rocket 4.0 00:10:46 23° S 00:14:55 89° ESE 00:21:18 10° NNE
Cosmos 2322 Rocket 3.6 00:10:28 10° NW 00:14:58 24° WSW 00:17:43 17° SW
SL-16 R/B 3.8 00:13:14 10° NNW 00:18:29 36° NNE 00:23:43 10° E
Cosmos 1536 3.4 00:19:16 24° SW 00:21:27 51° WNW 00:25:22 10° N
Cosmos 968 Rocket 4.1 00:19:12 25° SSE 00:21:36 41° ESE 00:26:24 10° NE
Cosmos 1908 Rocket 3.7 00:21:10 30° S 00:23:15 67° E 00:27:36 10° NNE
COSMOS 2428 2.7 00:19:41 10° NW 00:25:25 74° WSW 00:29:11 22° SSE
Nadezhda 4 Rocket 4.3 00:24:17 10° N 00:30:38 66° ENE 00:35:18 19° SSE
Cosmos 2360 Rocket 3.2 00:25:55 10° NW 00:30:50 31° WSW 00:33:23 21° SSW
Cosmos 1378 Rocket 4.3 00:28:11 10° NNW 00:32:24 41° W 00:34:29 25° SSW
CZ-2D R/B 4.2 00:30:10 10° NE 00:33:47 18° E 00:37:24 10° SE
CENTAUR R/B 2.7 00:27:37 10° SW 00:34:01 87° SE 00:41:41 10° NE
SL-16 R/B 3.5 00:29:27 10° SE 00:35:22 46° ENE 00:41:19 10° NNW
Cosmos 1271 Rocket 3.5 00:37:19 10° NNW 00:40:49 37° W 00:42:07 28° SW
USA 267 3.2 00:34:18 10° E 00:40:54 85° S 00:47:29 10° W
Cosmos 1743 2.8 00:41:15 31° SSW 00:43:01 70° WNW 00:46:57 10° N
Cosmos 1975 Rocket 3.1 00:38:47 10° NNW 00:43:19 78° WSW 00:45:36 29° S
Okean 2 Rocket 4.4 00:41:46 18° SE 00:44:19 31° E 00:48:17 10° NNE
Cosmos 1980 3.8 00:38:46 10° NW 00:44:29 80° NE 00:49:51 12° SE
Meteor 2-9 Rocket 4.5 00:41:29 24° S 00:44:47 60° E 00:50:25 10° NNE
Cosmos 1242 Rocket 4.4 00:42:12 10° NW 00:44:48 19° W 00:46:00 16° WSW
Cosmos 2333 Rocket 2.6 00:39:30 10° NW 00:45:04 49° WSW 00:48:11 25° S
PSLV R/B 3.9 00:41:23 10° NNE 00:45:58 62° ESE 00:48:26 27° S
Cosmos 1544 3.0 00:45:29 35° S 00:46:55 83° E 00:50:36 10° NNE
Helios 1B rocket 3.1 00:42:59 10° NNE 00:46:55 43° E 00:48:49 26° SSE
Cosmos 1975 2.9 00:45:31 31° S 00:47:18 71° E 00:51:20 10° NNE
NOSS 5 (C) 4.4 00:47:27 36° SSW 00:48:33 56° SE 00:51:35 10° ENE
Cosmos 1666 4.4 00:46:32 14° WSW 00:48:58 25° WNW 00:52:09 10° N
Cosmos 2297 Rocket 4.2 00:45:39 10° SE 00:49:01 16° E 00:52:24 10° ENE
COSMOS 2487 2.3 00:48:08 36° SSW 00:49:27 87° WNW 00:52:55 10° NNE
Meteor 1-29 4.4 00:47:44 10° NNE 00:50:49 29° E 00:52:12 22° SE
Sich 1 Rocket 4.1 00:48:43 25° SSE 00:50:59 49° E 00:55:15 10° NNE
Cosmos 44 Rocket 3.5 00:47:13 10° NW 00:52:03 55° SW 00:55:08 22° SSE
Cosmos 783 Rocket 4.5 00:46:57 10° NNW 00:52:11 71° WSW 00:55:27 23° SSE
Cosmos 2237 Rocket 2.2 00:48:50 10° NW 00:54:33 86° NE 00:59:51 12° SE
NOSS 3-2 (A) 4.0 00:48:46 10° WSW 00:54:56 68° NNW 01:02:09 10° ENE
NOSS 3-2 (C) 3.7 00:53:14 10° WSW 00:59:20 78° NNW 01:06:32 10° ENE
Cosmos 1503 Rocket 4.4 00:56:39 25° S 00:59:39 55° ESE 01:04:55 10° NE
Cosmos 2084 Rocket 3.4 00:57:25 20° SW 01:00:17 83° SE 01:04:40 10° ENE
CZ-4 R/B 4.0 00:57:53 10° NNE 01:02:52 77° ESE 01:05:48 25° S
Cosmos 1486 Rocket 4.0 01:03:28 24° SSW 01:06:42 90° ESE 01:11:58 10° NNE
CZ-4C R/B 4.3 01:04:18 13° SE 01:07:04 38° ENE 01:10:24 10° N
Helios 1A 4.4 01:07:52 20° SW 01:09:31 25° W 01:13:04 10° NW
Spot 1 4.1 01:06:48 20° SSE 01:09:38 72° ENE 01:13:43 10° NNW
Cosmos 1842 4.2 01:09:31 10° NNW 01:13:09 35° W 01:14:42 25° SW
In-Cosmos 22 4.2 01:09:16 10° NNW 01:14:59 84° ENE 01:19:14 18° SSE
Cosmos 1707 2.7 01:11:11 10° NNW 01:15:08 76° W 01:17:05 28° S
Cosmos 2151 Rocket 4.5 01:12:29 19° SSE 01:15:12 41° E 01:19:21 10° NNE
DNEPR-1 R/B 4.1 01:17:24 10° NW 01:23:51 79° SW 01:29:01 10° SE
ERBS 2.4 01:21:25 10° W 01:24:37 46° SSW 01:27:47 10° SE
SJ 16-02 3.8 01:26:54 10° ESE 01:28:51 13° E 01:30:49 10° ENE
Meteor 2-13 Rocket 4.4 01:23:04 10° NNW 01:29:12 89° E 01:34:10 16° S
Cosmos 1538 Rocket 3.9 01:26:26 10° NNW 01:31:38 73° WSW 01:35:51 15° SSE
Cosmos 1025 Rocket 3.1 01:29:28 10° NNW 01:33:43 64° W 01:36:08 24° S
Resurs 1-4 Rocket 3.0 01:30:18 10° NNE 01:35:20 42° E 01:39:24 15° SSE
Cosmos 1674 2.9 01:33:21 10° N 01:37:05 66° ENE 01:39:47 17° SSE
Cosmos 2227 Rocket 3.5 01:33:34 14° SSE 01:37:33 29° ESE 01:42:21 10° NE
MOZ.5/SAFIR/RUBIN 5/SL-8 3.8 01:36:59 20° S 01:40:16 70° WSW 01:45:02 10° NNW
NOSS 0 Rocket 4.4 01:34:44 10° NW 01:40:34 42° WSW 01:44:39 19° S
Cosmos 1437 3.0 01:39:42 10° NNW 01:42:35 44° W 01:43:28 32° SW
Cosmos 773 Rocket 4.4 01:38:20 10° NW 01:43:14 44° WSW 01:46:17 21° S
Cosmos 1536 Rocket 3.6 01:41:29 10° NNW 01:45:47 61° W 01:48:26 22° S
Cosmos 2026 Rocket 3.9 01:39:49 10° NNW 01:45:56 84° W 01:51:08 15° S
ATLAS 3B R/B 2.7 01:40:56 12° WSW 01:47:12 84° NNW 01:53:59 10° NE
Cosmos 1627 Rocket 4.5 01:42:21 10° NNW 01:48:30 79° W 01:53:40 15° S
USA 238 DEB 4.4 01:43:38 10° W 01:50:22 57° NNW 01:57:27 10° ENE
USA 238 4.4 01:43:44 10° W 01:50:28 57° NNW 01:57:34 10° ENE
Cosmos 2219 Rocket 3.6 01:46:19 10° NW 01:50:33 22° WSW 01:52:54 17° SW
FALCON 9 DEB 3.7 01:49:06 17° WSW 01:51:19 36° S 01:54:33 10° ESE
Cosmos 2344 4.4 01:42:41 10° NW 01:51:29 59° SW 02:03:35 10° SSE
Lacrosse 4 Rocket 1.6 01:49:19 18° SW 01:52:23 70° NW 01:56:35 10° NE
COBE Rocket 4.3 01:48:09 10° SSE 01:52:44 60° ENE 01:57:20 10° N
Cosmos 1782 Rocket 4.5 01:50:04 18° SW 01:52:49 37° WNW 01:56:53 10° N
Cosmos 1634 Rocket 4.2 01:50:27 16° S 01:55:31 72° E 02:01:44 10° NNE
Cosmos 2112 Rocket 4.3 01:51:50 10° NNW 01:57:07 69° ENE 02:02:19 10° SE
SL-4 R/B 2.7 01:58:02 24° S 01:58:02 24° S 02:00:25 10° SE
Cosmos 1354 Rocket 4.2 01:57:00 18° SW 02:00:58 71° WNW 02:06:20 10° NNE
IRAS Rocket 4.4 01:57:00 16° S 02:01:23 59° WSW 02:06:57 10° NNW
Meteor 1-24 Rocket 3.9 01:56:43 10° NNW 02:02:18 69° ENE 02:07:41 10° SSE
SL-16 R/B 2.2 01:57:27 10° NW 02:03:12 81° WSW 02:08:53 10° SSE
Cosmos 968 Rocket 4.1 01:59:12 14° WSW 02:03:24 48° NW 02:08:24 10° NNE
Meteor 2-5 Rocket 3.7 02:00:18 10° NNW 02:06:03 89° ENE 02:11:39 10° SSE
COSMOS 2428 4.3 02:04:58 10° WNW 02:08:49 19° W 02:11:10 15° SW
NPP 3.9 02:08:20 10° NNE 02:13:44 66° ESE 02:18:22 14° S
CZ-2D R/B 2.3 02:09:16 10° NNE 02:14:47 76° ESE 02:19:24 15° S
Cosmos 1680 Rocket 3.5 02:09:39 10° NNW 02:14:57 85° WSW 02:20:11 10° SSE
KORONAS-FOTON 4.0 02:12:29 10° NNW 02:16:12 54° W 02:18:48 18° S
H-2A R/B 4.3 02:14:12 10° ESE 02:17:34 25° ENE 02:20:56 10° N
SL-16 R/B 2.8 02:13:43 14° S 02:18:59 52° W 02:25:08 10° NNW
GEOS 3 Rocket 3.8 02:13:58 10° NE 02:19:24 72° SE 02:23:51 15° SW
AQUA 4.2 02:15:30 10° NNE 02:20:16 62° ESE 02:24:26 13° S
Cosmos 1607 4.1 02:15:33 10° NW 02:21:49 57° SW 02:28:07 10° SSE
Helios 1B rocket 3.7 02:18:28 10° N 02:22:06 31° WNW 02:25:08 13° WSW
Okean 2 Rocket 3.7 02:19:08 17° SW 02:22:17 45° WNW 02:26:38 10° N
ADEOS II 3.0 02:17:50 10° NNE 02:22:53 44° E 02:27:54 10° S
Meteor 1-29 4.1 02:20:25 10° N 02:23:35 33° WNW 02:25:50 16° WSW
USA 267 3.3 02:17:49 10° SE 02:24:17 60° SSW 02:30:46 10° WNW
CENTAUR R/B 3.5 02:18:36 10° W 02:25:19 58° N 02:33:15 10° ENE
IRS-1D 4.1 02:21:54 10° NNE 02:26:49 51° E 02:31:47 10° S
Cosmos 2333 Rocket 4.2 02:26:13 10° WNW 02:28:01 11° W 02:29:49 10° WSW
Okean 1-7 Rocket 3.9 02:24:40 10° N 02:29:05 70° ENE 02:33:30 10° SSE
Cosmos 1766 3.4 02:26:32 14° S 02:29:47 70° E 02:33:41 10° NNE
Cosmos 2297 Rocket 2.4 02:27:24 15° SSW 02:32:04 67° ESE 02:37:43 10° NE
Cosmos 2219 3.3 02:27:45 15° SSW 02:32:23 75° ESE 02:38:01 10° NE
Cosmos 1777 Rocket 4.1 02:29:15 16° SSW 02:33:34 86° WNW 02:38:55 10° NNE
UNK 4.5 02:30:43 16° SSW 02:34:01 36° W 02:38:23 10° NNW
Cosmos 1626 2.1 02:31:34 10° NNW 02:35:17 73° W 02:38:57 10° S
Cosmos 2266 Rocket 4.2 02:29:22 10° NNW 02:35:50 82° ENE 02:42:10 10° SSE
Cosmos 1655 Rocket 4.0 02:30:24 10° NNW 02:36:44 82° W 02:42:59 10° S
Cosmos 2237 Rocket 3.3 02:33:31 10° NW 02:38:02 25° WSW 02:41:37 14° SSW
CZ-4B R/B 3.6 02:35:26 10° NNE 02:40:15 69° ESE 02:44:51 11° S
Okean 1 Rocket 3.1 02:38:14 15° SSW 02:41:49 72° WNW 02:46:12 10° N
CZ-4C R/B 4.3 02:40:01 16° SW 02:41:55 25° W 02:44:57 10° NW
Meteor 1-28 Rocket 3.5 02:38:12 10° SSE 02:41:59 70° ENE 02:45:48 10° N
Cosmos 1603 4.1 02:36:55 10° NW 02:42:42 73° NE 02:48:26 10° SE
Cosmos 923 Rocket 4.4 02:39:48 10° NW 02:44:54 46° WSW 02:49:56 10° S
Cosmos 1470 4.0 02:42:43 10° SSE 02:46:25 39° E 02:50:10 10° NNE
NOSS 8 (A) 4.0 02:47:23 16° SW 02:49:44 81° SE 02:52:50 10° ENE
Cosmos 2098 Rocket 3.3 02:46:38 10° NNW 02:51:01 83° W 02:56:35 10° S
SL-08 R/B 3.4 02:46:30 10° SSE 02:51:28 85° WSW 02:56:28 10° NNW
Cosmos 158 Rocket 4.3 02:47:34 10° NW 02:52:43 50° WSW 02:57:54 10° S
SL-14 R/B 3.6 02:55:58 10° NNW 02:59:47 47° W 03:03:32 10° S
ERBS 4.0 02:58:27 10° WSW 03:00:16 14° SW 03:02:06 10° S
Cosmos 1805 3.6 02:59:42 13° SSW 03:03:05 50° WNW 03:06:54 10° N
Timation 2 Rocket 4.2 02:59:32 10° SW 03:05:36 65° NW 03:11:36 10° NE
SJ 16-02 1.6 03:02:14 10° SSW 03:06:37 70° ESE 03:11:02 10° NNE
Cosmos 1809 Rocket 4.5 03:03:49 10° NNW 03:09:57 89° WSW 03:16:05 10° S
Cosmos 1943 3.3 03:04:20 10° NW 03:10:00 88° NE 03:15:38 10° SE
Cosmos 1626 Rocket 3.6 03:07:05 10° NNW 03:11:27 84° ENE 03:15:47 10° SSE
IRS-P3 4.3 03:06:08 10° NNE 03:11:31 75° ESE 03:16:53 10° SSW
Cosmos 1674 4.5 03:09:47 10° NW 03:12:10 16° W 03:14:33 10° SW
Meteor 1-21 Rocket 4.4 03:09:24 10° NNW 03:15:03 81° ENE 03:20:36 10° SSE
Resurs 1-4 Rocket 2.7 03:10:13 10° N 03:15:15 45° WNW 03:20:15 10° SW
Cosmos 1455 Rocket 3.1 03:12:16 10° S 03:16:42 86° E 03:21:12 10° NNE
Cosmos 1892 Rocket 4.2 03:14:06 10° NNW 03:18:15 38° W 03:22:23 10° SSW
Cosmos 1758 3.7 03:14:39 10° S 03:18:39 66° E 03:22:40 10° NNE
Cosmos 2227 Rocket 2.3 03:15:29 10° SW 03:21:11 77° NW 03:26:53 10° NE
Cosmos 1733 3.7 03:17:55 10° SW 03:21:36 45° WNW 03:25:19 10° N
CZ-2C R/B 4.4 03:19:50 10° NNE 03:23:27 34° E 03:26:58 10° SSE
CZ-2D R/B 4.2 03:21:08 10° NNE 03:25:11 52° E 03:29:06 10° S
Cosmos 1048 Rocket 4.4 03:21:38 10° NNW 03:26:47 68° ENE 03:31:55 10° SE
Landsat 5 3.6 03:23:38 10° SSE 03:27:34 78° ENE 03:31:41 10° NNW
Cosmos 1461 4.0 03:24:09 10° SSW 03:28:16 40° SE 03:32:37 10° ENE
Cosmos 1758 Rocket 4.3 03:25:05 10° N 03:29:22 56° ENE 03:33:36 10° SSE
USA 215 3.7 03:25:15 10° ENE 03:31:37 52° SSE 03:37:59 10° SW
Lacrosse 4 Rocket 3.3 03:28:09 10° WNW 03:31:43 26° NNW 03:35:14 10° NE
Meteor 2-21 4.4 03:26:59 10° NNW 03:33:02 74° W 03:39:04 10° S
Cosmos 1340 Rocket 2.8 03:31:09 10° SSW 03:35:09 87° ESE 03:39:09 10° NNE
ATLAS 3B R/B 3.4 03:32:03 10° W 03:38:32 52° N 03:45:12 10° ENE
